Погода Владимир-Волынский

Погода Владимир-Волынский : погода сейчас, прогноз погоды и архив. Всё, что Вы хотите узнать о погоде Владимир-Волынский!

Хотите узнать прогноз погоды Владимир-Волынский? Тогда Вам сюда: Погода Владимир-Волынский

Поиск расширенной информации на нашем сайте:

Другие новости

Новости СМИ2

Главная страница сайта

Новости сайта

03.07.2017

Напоминаем, что на нашем специализированном сайте Метеоцентр.Азия вы можете получить высокодетализированные автоматические прогнозы погоды по пунктам России, СНГ и мира в авиационном формате (включающие направление и скорость ветра, видимость, явления погоды, количество и форму облачности, нижнюю и верхнюю границу облачности).

Рекомендуем: Световое шоу flagro светодиодные крылья.

Погода Владимир-Волынский - сегодня

Время (UTC), дата Ветер
(°,м/с) 
Видим.   Явления Облачность Т
(°С)
Тd
(°С)
f(%) Тe
(°С)
Pmin
(гПа)
dP
(гПа)
Po
(мм)
O2
(г/м3)
Тmin Tmax R s Состояние
почвы
21 19.07.17 180 (Ю) 10 км    8/8 600 м 
[Sc]
+17.2 +15.1 87 +28  1016.2  -0.4  745  279           
00 20.07.17 180 (Ю) 10 км    ясно 
+15 +13.2 89 +22  1015.2  -1.1  744  282           
03 20.07.17 030 (СВ) 10 км    9/8 600 м верхняя 
[Sc|Ci fib]
+14.4 +13 91 +22  1014.7  -0.6  744  282           
06 20.07.17 050 (СВ) 10 км    9/9 600 м 
[Sc]
+18 +16 88 +30  1014.5  0.1  744  278  +14.2         
09 20.07.17 140 (ЮВ) 20000 м    9/9 600 м кучево-дожд. 
[Cb calv]
+20.6 +16.7 78 +33  1013.5  -0.7  743  275           
12 20.07.17 160 (Ю) 20000 м    4/3 600 м средняя, верхняя 
[Sc|Ac und|Ci fib]
+26.6 +17.6 58 +40  1011.2  -1.8  742  268           
15 20.07.17 070 (В) 20000 м    8/3 600 м средняя, верхняя 
[Cu med, cong|Ac lent|Ci sp]
+27.2 +18.7 60 +43  1009.8  -1.3  741  267           
18 20.07.17 070 (В) 10 км  слаб. ливневой дождь, в посл. час гроза  10/10 600 м кучево-дожд. 
[Cb cap]
+20.6 +16.7 78 +33  1010.3  -0.1  741  274    +28.1  0.0     
21 20.07.17 090 (В) 10 км  слаб. ливневой дождь, в посл. час гроза  10/10 600 м кучево-дожд. 
[Cb cap]
+20.2 +18 87 +35  1010.9  0.6  741  274           
00 21.07.17 тихо ()   10 км  {гроза, ливн. осадки}  10/10 600 м 
[Sc]
+18 +16.7 92 +30  1012  0.9  742  277      12     
03 21.07.17 тихо ()   4000 м  местами туман поземный  8/0 средняя, верхняя 
[Ac lent|Ci fib]
+16.4 +15.9 97 +27  1012.2  0.1  742  279           
06 21.07.17 170 (Ю) 10 км  {туман}  4/0 верхняя 
[Ci sp]
+21.2 +18 82 +36  1011.7  -0.1  742  273  +16.3    12     
09 21.07.17 230 (ЮЗ) 20000 м    ясно 
+25.8 +19.7 69 +44  1011.9  0.5  742  269           
12 21.07.17 270 (З) 20000 м    6/3 600 м средняя, верхняя 
[Cu hum|Ac lent|Ci fib]
+29 +18.9 54 +46  1010.7  -0.9  742  266           
15 21.07.17 110 (В) 20000 м    10/3 600 м верхняя 
[Cu med, cong|Cc]
+29.2 +19.5 56 +47  1009  -1.7  740  265           
18 21.07.17 330 (СЗ) 10 км  в посл. час гроза{ливн. осадки}  10/10 600 м кучево-дожд. 
[Cb cap]
+19.4 +17.6 89 +35  1011.8  742  275    +29.9     
21 21.07.17 250 (З) 10 км    4/3 600 м средняя 
[Sc|Ac und]
+18.2 +16.9 92 +32  1012.4  0.5  742  277           
00 22.07.17 310 (СЗ) 10 км    8/8 600 м 
[Sc]
+19.2 +18.1 93 +35  1012.5  0.2  743  275           
03 22.07.17 320 (СЗ) 10 км    10/10 600 м кучево-дожд. 
[Cb cap]
+19 +17.9 93 +34  1013.4  0.9  743  276           
06 22.07.17 310 (СЗ) 20000 м    6/4 600 м верхняя 
[Cu med, cong|Ci fib]
+19.6 +16.3 81 +32  1014.8  1.4  744  276  +18.1         
09 22.07.17 320 (СЗ) 20000 м    9/9 600 м кучево-дожд. 
[Cb cap]
+22.8 +17 70 +35  1015.5  0.9  745  273           
12 22.07.17 340 (С) 20000 м    9/9 600 м 
[Cu med, cong]
+24.4 +16.3 61 +36  1015.3  -0.1  745  272           
15 22.07.17 010 (С) 20000 м    8/6 600 м верхняя 
[Cu med, cong|Ci fib]
+25.8 +16.4 56 +37  1015  -0.2  745  271           
18 22.07.17 040 (СВ) 20000 м    ясно 
+22 +17.5 76 +36  1014.9  -0.3  744  274    +26.1       
21 22.07.17 тихо ()   10 км    ясно 
+17.8 +15.1 84 +27  1017.1  1.8  746  279           
Время (UTC), дата Ветер
(°,м/с) 
Видим.   Явления Облачность Т
(°С)
Тd
(°С)
f(%) Тe
(°С)
Pmin
(гПа)
dP
(гПа)
Po
(мм)
O2
(г/м3)
Тmin Tmax R s Состояние
почвы

Для получения пояснительной информации подведите курсор к названию столбца.

ПОГОДА Владимир-Волынский - архив

Всё, что Вы хотите узнать о погоде Владимир-Волынский - удобно и подробно!

Выберите нужную дату (начиная с 1 января 2015* года) и нажмите кнопку "Найти".
Будут отображены архивные сводки погоды по пункту Владимир-Волынский, начиная с указанной даты.


Отображать данные в формате CSV (для использования в таблицах Excel)


Внимание! Наш архив погоды предназначен исключительно для личного некоммерческого использования в познавательных целях. Если Вам необходимы официальные справки о состоянии погоды (для производственных, юридических, коммерческих и т.п. целей), обращайтесь в органы Росгидромета.

*Примечание: данная дата относится к архиву по метеостанциям СССР (Россия, СНГ, Балтия).
Архив по метеостанциям Зарубежной Европы и Азии (кроме Китая) хранится 10 дней, по другим регионам земного шара (Китай, Африка, Америка, Австралия, Океания) - 1 день.

Владимир-Волынский - район местоположения метеостанции


Название, широта, долгота, высота метеостанции:
Владимир-Волынский 50.8°ш. 24.3°д. 194 м над ур. моря [Украина]

Дополнительная информация

В oтличие oт бoльшинства пoгoдных сайтoв мы публикуем пoдрoбную метеoинфoрмацию в детальнoм прoфессиoнальнoм фoрмате.

Характеристики температуры и влажнoсти вoздуха измеряются на высoте 2 м в тени вдали oт зданий и деревьев.
Скoрoсть ветра измеряется на высoте 10 м (на урoвне рoста челoвека скoрoсть ветра ниже в 1.5-2 раза). Если метеoстанция нахoдится в гoрoде или в лесу, тo скoрoсть ветра занижена на 2-4 м/с пo сравнению с oткрытым местoм. Скoрoсть ветра над акватoриями крупных рек и oзёр, а также на вершинах хoлмoв на 2-5 м/с выше, чем в oбычных услoвиях.
Атмoсфернoе давление в разных тoчках местнoсти мoжет значительнo oтличаться oт давления на метеoстанции, в зависимoсти oт услoвий рельефа (при пoдъёме на 10 м давление пoнижается примернo на 1 мм рт.ст.).